OPS 4682 DEB, 38363

Orbit data source: Space-Track

OPS 4682 DEB, 38363 is space debris in LEO originally from a launch on Sat, 03 Apr 1965 UTC launched from the Air Force Western Test Range (AFWTR). Debris objects in space refer to the collection of defunct objects orbiting the Earth. Examples of debris include non-operational satellites, rocket bodies, and fragments generated from explosions, collisions, or faulty payload assembly.

Loading next visibility...
Identifier
38363, 1965-027BQ
Orbit
LEO
Country
Flag of USUS
Related business
Manufacturer
Unknown
Mission
Spacecraft
Bus & Motor
Unknown
Mass
Unknown
Launch date (UTC)
1965-04-03 (61 years ago)
Launch vehicle
Unknown
Launch site
Air Force Western Test Range (AFWTR)
Object type
Payload
Rocket body
Debris
Shape & HBR
Unknown shape, 0.1 m
Radar Cross Section
Small (<0.1 m²)

Expand to show TLE details & history
Last TLE update: 5 days ago

TLE from 5 days ago
0 OPS 4682 DEB
1 38363U 65027BQ  25336.07967680  .00001163  00000-0  37717-2 0  9993
2 38363  90.2392   5.2101 0029486  11.0561 349.1204 13.01167714526526
Epoch: 2025-12-02T01:54Z
TLE epoch observation values (Epoch: 2025-12-02T01:54:44.075Z)
Latitude
0.00003°
Longitude
-94.64352°
Altitude
1,238.289 km
Speed
7.246 km/s
True Right ascension
00h 20m 50s
True Declination
0° 00' 00"
Sunlit
Object was in daylight at epoch
Visualization orbit readout
Latitude
Unknown
Longitude
Unknown
Altitude
Unknown
Speed
Unknown
Apparent Right ascension
Unknown
Apparent Declination
Unknown
Sunlit
N/A
Visualization observer readout
Local Sidereal Time
03:27:42
Azimuth
Unknown
Elevation
Unknown
Doppler factor
Unknown
Orbital elements
Apogee altitude
1,277.146 km
Perigee altitude
1,232.134 km
Semi-major axis
7,632.777 km
Eccentricity
0.00295
Inclination
90.2392°
RAAN
5.2101°
Arg. of periapsis
11.0561°
True anomaly
349.05639°
Mean anomaly
349.1204°
Eccentric anomaly
349.08842°
Mean motion
3.25476 °/min
Orbital period
110.61 mins
BSTAR
0.0037717
Loading maneuver chart data...
Computing Atmospheric mass density...
Loading historical data...
Loading historical data...
Loading historical data...
Loading historical data...
Loading historical data...
Loading historical data...
Loading historical data...

Documentation

Showing up to 5 results
|